Hourly Data Report for September 04, 2017

All times are specified in Local Standard Time (LST). Add 1 hour to adjust for Daylight Saving Time where and when it is observed.

GRAND MANAN SAR CS
NEW BRUNSWICK

44°42'43.400" N
66°48'06.900" W
78.20 m
8101925
71030
XGM

Download Data

Hourly Data (September 2017)
Hourly Data Report for September 4, 2017
Temp Definition
°C
Dew Point Temp Definition
°C
Rel Hum Definition
%
Wind Dir Definition
10's deg

Wind Spd Definition
km/h
Visibility Definition
km
Stn Press Definition
kPa
Hmdx Definition


Wind Chill Definition


Weather Definition


TIME
00:00 13.0 12.8 99 11 16   99.67     LegendNANA
01:00 13.9 13.6 98 14 18   99.49     LegendNANA
02:00 14.2 13.9 99 17 22   99.38     LegendNANA
03:00 13.2 13.0 99 22 21   99.30     LegendNANA
04:00 12.2 11.7 97 22 29   99.24     LegendNANA
05:00 12.0 11.6 97 23 26   99.21     LegendNANA
06:00 11.8 11.3 97 24 27   99.29     LegendNANA
07:00 12.0 11.4 96 26 23   99.44     LegendNANA
08:00 12.2 11.5 96 26 17   99.58     LegendNANA
09:00 13.4 11.5 88 25 17   99.65     LegendNANA
10:00 14.5 11.3 81 25 19   99.72     LegendNANA
11:00 14.9 11.6 81 26 16   99.78     LegendNANA
12:00 15.5 11.4 77 24 14   99.86     LegendNANA
13:00 17.9 11.8 67 25 13   99.85     LegendNANA
14:00 18.6 13.3 71 24 15   99.86     LegendNANA
15:00 18.2 12.7 70 23 17   99.90     LegendNANA
16:00 17.7 12.0 69 22 16   99.89     LegendNANA
17:00 16.6 11.6 72 23 17   99.97     LegendNANA
18:00 15.9 11.4 75 23 18   99.98     LegendNANA
19:00 14.5 11.6 83 25 17   100.05     LegendNANA
20:00 14.2 12.1 87 24 14   100.11     LegendNANA
21:00 14.2 12.3 89 24 17   100.12     LegendNANA
22:00 14.5 12.9 90 23 14   100.12     LegendNANA
23:00 15.1 13.8 92 22 15   100.09     LegendNANA

Notes on Data Quality.

Legend

  • E = Estimated
  • M = Missing
  • NA = Not Available
  • ‡ = Partner data that is not subject to review by the National Climate Archives
Date modified: